Wind_Speed
16 16 17 17 17 18 18 19 19 19 19 18 18 19 19 19 19 20 20 20 20 20 20 20 20 19 19 18 18 18 19 18 18 18 19 20 20 20
17 17 17 18 18 18 18 20 20 20 20 19 19 20 20 20 20 21 21 21 21 21 21 21 20 20 19 19 18 18 18 19 18 18 18 19 19 20
19 19 19 20 21 20 20 21 21 21 20 20 19 19 20 21 21 21 21 21 21 21 22 22 22 21 21 20 20 19 19 19 19 19 19 19 19 19
21 20 21 21 21 21 21 21 21 21 21 21 21 21 21 21 21 21 21 22 21 21 22 22 22 22 21 21 20 20 20 19 19 19 19 19 19 20
22 23 23 23 22 22 22 22 22 21 21 21 22 22 22 22 22 22 21 21 20 20 21 21 21 21 21 21 20 20 20 20 19 20 20 20 20 20
24 25 25 24 24 23 24 24 23 23 23 23 23 23 22 22 22 22 22 22 21 20 20 20 21 21 21 21 20 20 20 20 20 20 20 20 20 20
26 26 26 25 26 25 25 25 25 24 24 23 23 23 23 22 22 22 22 22 22 21 20 20 20 20 21 21 20 20 20 21 21 21 21 20 20 20
26 26 26 26 26 26 26 26 26 25 25 25 24 24 24 23 23 23 22 22 22 21 21 21 21 21 20 21 21 21 21 21 21 21 20 20 20 19
27 27 27 27 27 27 27 26 27 26 26 26 26 25 25 24 24 23 22 22 22 22 22 22 22 21 21 21 21 21 21 21 21 21 21 21 20 21
27 27 27 27 27 27 28 27 28 28 28 28 27 26 26 25 24 23 23 24 23 23 23 22 22 21 20 20 21 21 21 20 20 21 21 21 21 20
28 27 27 27 28 28 28 29 29 29 29 28 27 27 27 26 26 26 25 25 25 24 24 23 22 22 21 20 21 21 21 21 20 20 20 21 20 20
29 28 28 28 28 29 29 29 29 29 29 29 28 28 27 26 26 27 26 26 25 24 24 23 22 22 21 20 21 21 21 21 20 20 20 21 21 21
30 29 28 28 28 28 29 28 28 28 28 28 28 27 27 26 26 27 26 25 24 24 24 24 23 23 23 22 22 22 22 22 22 21 21 21 21 22
29 29 29 29 29 29 29 28 28 28 28 28 27 27 26 26 26 26 26 25 25 25 25 25 24 24 23 23 22 22 23 23 22 22 22 22 22 22
29 29 29 29 29 29 29 29 29 29 29 28 28 28 27 26 26 26 26 26 26 25 25 25 25 24 24 23 23 23 23 23 22 22 22 22 23 23
30 29 29 29 29 30 30 30 30 30 30 29 29 28 27 27 26 26 26 26 26 26 25 25 25 25 25 25 24 24 24 24 24 23 23 23 23 23
30 29 29 29 30 30 30 30 30 30 30 30 29 28 27 26 27 27 27 27 26 26 26 25 26 26 26 26 26 25 25 25 25 25 24 24 24 24
30 30 29 30 30 30 30 30 30 31 31 30 29 28 27 27 27 28 28 27 27 27 27 27 26 26 25 26 26 26 26 25 25 25 25 24 24 24
29 29 28 28 29 29 29 30 30 30 29 28 28 28 28 28 28 28 27 27 27 26 26 26 26 26 25 24 24 25 25 25 25 26 26 26 25 25
27 28 28 28 28 28 28 28 28 28 28 28 28 28 28 28 28 28 27 26 26 26 26 26 26 26 25 24 24 24 24 24 25 25 26 27 26 25
28 27 27 27 27 27 26 27 28 28 28 28 28 28 27 27 26 26 26 26 26 25 25 25 25 25 25 25 26 25 25 25 25 25 25 26 26 25
28 28 28 27 27 27 27 28 28 28 29 28 28 26 25 25 24 24 25 25 25 25 25 25 25 25 25 25 26 25 25 25 25 25 25 25 26 26
28 28 28 28 28 29 29 29 28 28 27 27 26 25 24 23 23 23 24 24 25 26 26 26 25 25 25 25 25 25 25 25 26 26 25 25 25 26
Wind_Direction
302 301 301 303 304 304 301 298 297 297 298 298 292 288 287 288 289 289 291 290 286 284 284 286 288 288 287 288 287 285 283 283 280 277 271 266 263 262
300 299 300 300 302 302 300 299 297 297 296 296 295 293 290 288 289 289 289 289 286 284 283 285 286 286 286 284 285 285 283 280 279 279 270 265 264 263
298 299 299 299 301 300 299 299 297 296 295 295 296 295 292 289 289 290 289 287 286 286 285 285 283 283 283 281 282 283 282 278 277 279 273 267 265 265
295 296 297 297 298 298 298 297 297 295 294 293 294 293 293 290 288 288 287 286 286 286 286 285 282 282 283 282 282 282 281 278 275 275 273 268 266 266
292 293 294 296 296 296 296 296 296 295 293 293 292 292 292 290 289 287 287 287 286 286 287 287 284 282 282 281 281 281 281 280 277 275 273 271 266 265
292 292 292 293 293 294 295 294 293 293 293 293 292 291 291 289 288 288 288 288 287 287 286 286 285 282 280 280 280 280 279 278 277 275 273 273 269 267
291 291 290 289 289 291 293 292 292 291 292 292 292 291 291 289 288 287 287 287 287 286 285 285 284 282 279 279 280 280 279 277 276 275 273 270 268 268
292 291 289 288 289 290 290 290 290 290 290 290 290 290 289 286 286 286 286 285 285 283 283 283 284 282 280 280 279 279 279 277 275 274 273 270 268 268
293 291 289 288 288 288 289 289 288 288 288 288 288 287 286 285 285 285 285 285 284 285 284 283 283 282 280 279 278 278 279 277 274 273 272 270 268 267
291 290 290 289 288 288 289 289 289 288 287 287 287 285 284 283 282 282 282 283 283 284 284 283 283 283 282 280 278 279 278 276 273 272 271 268 266 266
288 288 289 289 288 288 289 288 288 288 287 288 286 283 282 282 281 281 281 281 281 280 281 282 283 284 282 281 280 279 278 276 274 272 270 267 265 265
289 290 290 289 288 288 290 289 289 289 287 284 284 282 281 281 281 282 283 282 279 278 278 280 281 281 282 280 279 277 275 274 273 272 271 270 268 266
290 290 291 289 289 289 291 291 291 290 287 286 284 281 281 282 281 282 283 282 280 279 279 280 280 280 281 280 279 276 274 274 272 271 270 271 270 268
290 290 290 288 288 288 290 290 291 290 288 287 285 282 282 282 282 281 281 282 280 278 278 278 279 279 279 280 279 276 274 272 271 270 269 269 269 269
289 290 290 288 288 288 289 290 290 289 288 287 285 285 284 283 282 282 282 281 280 278 277 278 278 276 276 278 278 275 273 272 270 270 269 268 267 268
287 288 289 288 288 288 288 288 289 289 289 287 285 284 283 284 284 283 283 282 279 277 276 277 277 274 274 275 277 276 273 272 270 269 269 269 268 267
286 287 288 287 287 287 288 289 290 289 288 286 284 284 285 283 283 284 283 282 281 278 276 276 275 274 273 273 276 276 275 272 269 269 269 268 268 267
286 286 286 286 287 287 288 289 290 291 289 286 284 284 283 282 282 283 283 281 279 278 277 276 275 273 272 272 273 275 274 273 270 267 267 267 267 267
286 287 287 288 290 289 289 290 290 291 291 288 286 284 281 280 281 282 282 281 279 277 277 277 274 274 273 272 272 273 273 272 270 267 267 267 267 268
288 288 288 289 290 291 291 290 291 291 291 290 289 286 283 280 280 280 278 277 276 276 276 275 275 274 272 272 273 274 274 273 273 270 267 265 266 266
288 288 289 290 291 291 290 290 291 291 291 289 289 287 284 283 281 279 277 276 275 276 276 274 273 272 272 274 275 275 274 274 275 275 269 265 265 266
288 289 290 290 290 290 291 291 292 292 292 290 289 287 283 282 282 282 280 278 276 276 276 274 272 272 274 275 275 274 273 273 274 275 272 269 268 268
287 288 289 290 290 291 291 291 291 292 293 290 288 284 282 282 282 283 282 280 278 276 275 274 272 271 274 274 274 275 274 274 273 272 271 272 271 269
Height
5861 5860 5859 5858 5856 5855 5853 5853 5852 5850 5849 5848 5847 5846 5845 5844 5843 5842 5841 5840 5839 5839 5838 5837 5836 5835 5834 5832 5831 5830 5830 5829 5828 5828 5828 5828 5829 5830
5858 5856 5855 5854 5852 5851 5849 5848 5846 5845 5844 5843 5842 5841 5840 5839 5838 5837 5836 5835 5834 5833 5832 5831 5830 5829 5828 5827 5826 5825 5824 5824 5823 5822 5821 5822 5823 5824
5853 5852 5851 5849 5848 5846 5845 5843 5842 5840 5839 5838 5837 5836 5835 5834 5832 5831 5830 5829 5828 5827 5826 5825 5824 5823 5822 5821 5820 5819 5819 5818 5818 5817 5817 5817 5818 5818
5848 5847 5846 5844 5843 5841 5840 5838 5836 5835 5834 5833 5831 5831 5829 5828 5827 5825 5824 5823 5822 5821 5820 5819 5818 5817 5816 5815 5814 5814 5813 5812 5812 5812 5812 5812 5812 5812
5843 5842 5840 5839 5837 5836 5834 5833 5831 5830 5828 5827 5826 5825 5824 5822 5821 5819 5818 5817 5816 5815 5814 5813 5812 5811 5810 5809 5809 5808 5807 5807 5807 5806 5806 5806 5806 5806
5837 5836 5834 5833 5832 5830 5829 5827 5825 5824 5823 5822 5820 5819 5818 5816 5815 5813 5812 5810 5810 5809 5808 5807 5806 5805 5804 5803 5803 5802 5802 5801 5801 5800 5800 5800 5800 5801
5830 5829 5828 5827 5825 5824 5822 5821 5819 5818 5816 5815 5814 5813 5811 5809 5808 5807 5806 5804 5803 5802 5801 5801 5800 5799 5798 5797 5797 5796 5796 5795 5795 5795 5794 5795 5795 5795
5824 5822 5821 5820 5818 5817 5815 5814 5812 5811 5810 5809 5807 5806 5804 5803 5802 5800 5799 5798 5797 5797 5795 5794 5794 5793 5792 5791 5791 5790 5790 5789 5789 5789 5788 5788 5789 5789
5816 5815 5813 5813 5811 5810 5808 5806 5805 5804 5803 5801 5800 5799 5797 5796 5795 5793 5792 5791 5791 5789 5788 5788 5787 5786 5786 5785 5784 5784 5783 5783 5782 5782 5782 5782 5782 5783
5809 5808 5806 5805 5803 5802 5801 5799 5797 5796 5795 5794 5792 5791 5790 5788 5787 5786 5785 5784 5783 5782 5781 5781 5780 5779 5779 5778 5777 5777 5777 5776 5776 5776 5776 5776 5776 5776
5801 5800 5799 5797 5795 5794 5793 5792 5791 5789 5787 5786 5784 5783 5782 5781 5780 5779 5777 5777 5776 5776 5775 5774 5773 5772 5772 5772 5771 5770 5770 5770 5769 5769 5769 5769 5770 5770
5794 5793 5791 5790 5788 5787 5786 5784 5783 5781 5779 5777 5776 5775 5774 5773 5772 5771 5770 5769 5768 5768 5767 5767 5766 5766 5765 5765 5764 5764 5763 5763 5763 5763 5763 5763 5763 5764
5787 5785 5784 5782 5781 5779 5778 5776 5775 5773 5771 5769 5768 5767 5766 5765 5764 5763 5762 5761 5760 5760 5760 5759 5758 5758 5758 5758 5757 5757 5757 5757 5757 5757 5756 5756 5757 5757
5778 5777 5776 5774 5773 5771 5770 5768 5766 5765 5763 5761 5760 5759 5758 5757 5756 5755 5753 5753 5752 5752 5751 5750 5750 5750 5750 5750 5750 5750 5750 5750 5750 5750 5750 5750 5750 5751
5770 5768 5767 5766 5765 5763 5762 5760 5758 5756 5755 5754 5753 5752 5750 5749 5748 5747 5745 5744 5743 5743 5742 5742 5742 5742 5742 5742 5742 5742 5742 5742 5743 5743 5743 5744 5744 5744
5761 5760 5758 5757 5756 5754 5753 5751 5749 5748 5747 5745 5744 5743 5742 5740 5740 5738 5737 5736 5735 5734 5734 5734 5734 5733 5734 5734 5734 5734 5734 5735 5735 5735 5736 5736 5737 5737
5752 5751 5750 5748 5747 5746 5745 5743 5741 5739 5738 5736 5735 5734 5732 5731 5731 5730 5729 5727 5726 5726 5725 5725 5725 5725 5725 5725 5726 5726 5726 5726 5727 5727 5727 5728 5729 5729
5743 5742 5741 5740 5739 5737 5736 5734 5732 5731 5729 5727 5726 5724 5724 5723 5722 5721 5720 5719 5718 5718 5717 5717 5717 5717 5717 5717 5718 5717 5718 5718 5718 5719 5719 5720 5721 5721
5735 5734 5733 5731 5730 5728 5727 5725 5723 5722 5720 5718 5717 5716 5715 5714 5713 5712 5711 5710 5710 5710 5709 5709 5709 5709 5709 5710 5710 5709 5709 5709 5710 5710 5711 5712 5713 5713
5726 5725 5724 5723 5721 5720 5718 5716 5714 5713 5711 5709 5708 5707 5706 5705 5704 5703 5703 5702 5702 5701 5701 5701 5701 5701 5701 5702 5702 5701 5701 5701 5701 5702 5702 5703 5704 5705
5718 5717 5715 5714 5712 5711 5709 5708 5706 5704 5702 5700 5699 5698 5697 5696 5695 5694 5694 5693 5693 5693 5692 5693 5692 5692 5693 5693 5693 5693 5693 5693 5693 5693 5693 5694 5695 5696
5709 5708 5707 5706 5704 5703 5701 5699 5698 5696 5694 5692 5691 5689 5688 5687 5687 5686 5685 5685 5685 5684 5684 5684 5684 5684 5684 5685 5685 5685 5685 5685 5685 5684 5685 5685 5685 5686
5701 5700 5699 5697 5695 5694 5693 5691 5689 5687 5685 5684 5682 5681 5680 5679 5678 5678 5677 5677 5676 5676 5675 5675 5676 5676 5676 5676 5676 5676 5676 5676 5676 5676 5677 5676 5676 5676